カタログに戻る

DELTA 1 DEB

運用中UNKNOWN
NORAD 27481·DEBRIS·🇺🇸 United States

打ち上げ Jul 4, 1968 から Vandenberg Space Force Base

Loading…

次のパス (今後24時間)

TLE

最新Source: Space-Track

元期: Sep 6, 2026, 14:04 UTC

1 27481U 68055J   26249.58644068  .00002511  00000-0  36113-2 0  9995
2 27481 120.6793 121.0827 1697337  37.8493 333.0403 11.08674120520994

AllMySatでDELTA 1 DEBをリアルタイム追跡

Download on the App Store